Вернуться в каталог

YUNYAO-1 40

АктивенПогодаSSO
NORAD 62732·PAYLOAD·🇨🇳 China
Это название спутника еще не подтверждено официальными источниками.

Запущен Jan 20, 2025 с Jiuquan Satellite Launch Center

Loading…

Ближайшие Пролёты (ближайшие 24 часа)

TLE

СвежийSource: Space-Track

Эпоха: Sep 14, 2026, 21:57 UTC

1 62732U 25013D   26257.91501882  .00002731  00000-0  16359-3 0  9997
2 62732  97.6630  67.4905 0009950  83.6633 276.5730 15.11826563 90834

Отслеживайте YUNYAO-1 40 в реальном времени с AllMySat

Download on the App Store